Location: Basarabasa
(46.2000°N, 22.5833°E)
Time: 23:09:03
(UTC+00:00)

Daily predictions for brighter satellites

Satellite Brightness Start Highest point End
(mag) Time Altitude Azimuth Time Altitude Azimuth Time Altitude Azimuth
BREEZE-M DEB (TANK) 3.7 16:32:15 10° WNW 16:36:00 83° NNE 16:50:24 10° ESE
SKYMED 2 3.6 16:39:14 10° NNE 16:43:37 81° ESE 16:47:56 10° S
USA 215 3.8 16:38:15 10° E 16:44:27 46° NNE 16:50:39 10° NW
Landsat 5 3.4 16:41:29 10° NNE 16:45:26 87° ESE 16:49:30 10° SSW
Cosmos 2074 Rocket 4.1 16:41:48 10° S 16:47:54 57° E 16:54:03 10° NNE
Okean-O 3.5 16:46:34 10° SE 16:50:25 30° ENE 16:54:17 10° N
Spot 2 3.9 16:52:30 10° SSE 16:56:42 87° ENE 17:00:48 10° NNW
Atlas Centaur 2 4.4 16:51:34 10° SW 16:57:55 25° S 17:04:28 10° ESE
Cosmos 1378 Rocket 3.6 16:54:28 10° N 16:58:55 90° SW 17:03:21 10° S
Meteor 2-12 Rocket 4.4 16:54:52 10° S 17:00:58 82° E 17:07:04 10° N
IRAS Rocket 4.3 16:56:06 10° NNE 17:01:47 79° ESE 17:07:23 10° SSW
Cosmos 1908 Rocket 3.6 16:58:06 10° S 17:02:29 58° E 17:06:53 10° NNE
Lacrosse 4 Rocket 4.3 17:02:02 10° WNW 17:03:41 12° NW 17:05:21 10° NNW
ARGOS 3.3 17:01:50 10° SSE 17:07:12 81° WSW 17:12:36 10° NNW
HJ-1C 3.4 17:05:23 10° SSE 17:08:35 55° ENE 17:11:48 10° N
OBJECT-B 2.4 17:10:25 14° E 17:11:37 17° ENE 17:13:47 10° NNE
CZ-4C R/B 4.2 17:09:22 10° N 17:12:51 48° WNW 17:16:19 10° SSW
NOSS 3-2 (A) 4.3 17:09:01 10° SSE 17:13:11 22° ESE 17:17:44 10° ENE
Cosmos 1184 Rocket 3.7 17:10:31 10° N 17:13:20 28° ENE 17:15:43 13° SE
Cosmos 1346 Rocket 3.2 17:09:50 10° N 17:13:41 43° ENE 17:17:32 10° SSE
H-2A R/B 3.4 17:09:54 10° S 17:14:41 43° W 17:19:39 10° NNW
DMSP B5D2-2 4.2 17:10:44 10° NNE 17:15:55 52° E 17:21:03 10° S
YAOGAN 1 2.5 17:11:56 10° SSE 17:16:15 87° ENE 17:20:36 10° NNW
Cosmos 1943 Rocket 2.5 17:11:17 10° SSW 17:16:51 73° WNW 17:22:30 10° NNE
USA 305 4.1 17:13:49 10° NW 17:17:38 31° NNE 17:20:51 13° ENE
Cosmos 1538 Rocket 4.5 17:12:48 10° N 17:17:57 44° ENE 17:22:59 10° SE
SJ 16-02 1.8 17:14:16 10° S 17:18:22 39° ESE 17:22:30 10° NE
Okean O Rocket 3.3 17:14:26 10° SSW 17:18:29 36° W 17:22:32 10° NNW
Cosmos 1238 Rocket 3.8 17:18:01 10° S 17:24:15 88° E 17:29:40 10° N
USA 186 2.9 17:23:50 21° E 17:24:36 23° ENE 17:27:09 10° NNE
CZ-2C R/B 3.3 17:20:37 10° N 17:26:07 64° WNW 17:31:38 10° SSW
COSMOS 2455 3.9 17:22:34 10° NW 17:28:19 47° WSW 17:34:02 10° S
COSMO-SKYMED 1 4.5 17:27:36 10° N 17:31:30 33° WNW 17:35:24 10° SW
IRS-1C Rocket 4.1 17:26:22 10° SSE 17:31:38 90° NE 17:36:55 10° NNW
ISS -2.3 17:29:14 10° WNW 17:32:17 31° N 17:34:21 17° NE
Cosmos 1295 Rocket 4.4 17:26:10 10° S 17:32:23 73° E 17:38:42 10° NNE
USA 307 4.0 17:29:32 10° NW 17:33:25 33° NNE 17:35:58 18° ENE
Cosmos 1441 Rocket 4.3 17:30:36 10° NNE 17:33:39 23° ENE 17:34:08 22° E
Geosat 4.0 17:28:42 10° NNE 17:33:43 64° ESE 17:38:41 10° SSW
Cosmos 2369 Rocket 2.1 17:30:54 10° SSW 17:36:33 80° ESE 17:42:12 10° NNE
PSLV R/B 4.3 17:33:26 10° NNE 17:37:23 41° E 17:41:15 10° S
Cosmos 2184 Rocket 4.5 17:31:07 10° SSW 17:37:24 66° W 17:43:40 10° N
Cosmos 1833 4.3 17:32:23 10° NNW 17:37:56 56° ENE 17:42:01 18° SE
Cosmos 2327 Rocket 4.5 17:33:30 10° S 17:39:46 86° E 17:46:10 10° N
Okean 2 Rocket 3.9 17:42:36 26° ESE 17:43:17 27° E 17:47:01 10° NNE
CSL-04 Debris 4.1 17:39:32 10° SSE 17:44:56 83° ENE 17:50:21 10° NNW
Cosmos 1777 Rocket 4.0 17:40:24 10° SSW 17:45:39 88° WNW 17:50:55 10° NNE
USA 306 3.8 17:41:58 10° NW 17:45:55 37° NNE 17:47:51 24° ENE
Cosmos 1674 3.3 17:43:34 10° NNW 17:47:13 56° W 17:50:52 10° S
USA 276 3.0 17:44:37 10° WNW 17:47:36 40° N 17:48:35 30° NE
H-2A R/B 2.6 17:44:09 10° N 17:48:17 59° WNW 17:52:19 10° SSW
Lacrosse 5 rocket 3.0 17:45:20 10° WNW 17:49:26 33° SW 17:53:15 11° SSE
Cosmos 1656 Rocket 3.5 17:47:26 10° SSW 17:52:59 76° ESE 17:58:30 10° NNE
USA 308 3.8 17:49:00 10° NW 17:52:59 37° NNE 17:54:40 26° ENE
Cosmos 1782 Rocket 3.8 17:49:48 10° SSW 17:54:14 74° W 17:58:40 10° N
Cosmos 1626 2.3 17:51:44 10° NNW 17:55:26 73° W 17:59:05 10° S
APEX 3.4 17:51:06 10° NNW 17:55:51 62° ENE 17:57:09 39° ESE
Sich 1 Rocket 3.7 17:52:34 10° S 17:56:59 53° E 18:01:23 10° NNE
Cosmos 2154 Rocket 4.4 17:50:46 10° SSW 17:57:05 67° W 18:03:26 10° N
ATLAS CENTAUR R/B 3.9 17:54:10 10° WNW 17:57:55 23° WSW 18:01:44 10° SSW
SeaSat 1 2.7 17:56:27 31° ESE 17:58:33 52° NE 18:03:20 10° NNW
Cosmos 923 Rocket 4.4 17:54:27 10° N 17:59:25 43° ENE 18:01:01 34° ESE
SL-8 Rocket 4.0 17:54:48 10° SSE 18:00:53 56° E 18:07:04 10° NNE
Cosmos 1805 3.4 17:57:17 10° SSW 18:01:09 74° W 18:05:03 10° N
Cosmos 1025 Rocket 2.9 17:57:35 10° N 18:01:56 71° E 18:04:07 28° SSE
Cosmos 1536 Rocket 4.2 17:58:47 10° N 18:02:52 35° ENE 18:02:53 35° ENE
Cosmos 1315 Rocket 2.7 17:59:39 10° S 18:03:38 89° WNW 18:07:42 10° N
SL-14 R/B 3.1 17:59:43 10° N 18:03:43 78° E 18:05:20 34° SSE
EO 1 Delta rocket 4.3 18:03:45 34° SE 18:05:33 49° ENE 18:11:04 10° N
CZ-4B R/B 2.0 18:02:56 10° N 18:05:57 52° WNW 18:09:00 10° SSW
SJ-6B 2.8 18:06:16 39° SSE 18:07:42 71° ENE 18:11:47 10° N
MetOp-A 4.5 18:02:25 10° S 18:07:44 66° WSW 18:13:05 10° NNW
Cosmos 1339 Rocket 4.3 18:02:39 10° N 18:08:52 74° E 18:13:44 17° SSE
Meteor 2-10 4.2 18:05:56 10° S 18:11:25 54° E 18:16:45 10° NNE
CZ-4 R/B 3.9 18:09:09 10° SW 18:12:05 21° W 18:15:03 10° NW
Cosmos 1680 Rocket 3.9 18:07:03 10° N 18:12:05 43° ENE 18:13:00 39° E
Cosmos 2263 4.3 18:07:05 10° SSW 18:12:41 76° WNW 18:18:19 10° NNE
Cosmos 2151 Rocket 3.9 18:18:12 48° ENE 18:18:12 48° ENE 18:22:02 10° NNE
IRS-1A Rocket 4.5 18:16:43 38° SE 18:18:41 56° ENE 18:24:27 10° N
Cosmos 1727 Rocket 4.3 18:14:29 10° N 18:20:35 47° ENE 18:21:55 41° ESE
Cosmos 1733 4.1 18:17:08 10° SSW 18:20:48 48° WNW 18:24:31 10° N
Meteor 1-15 Rocket 4.2 18:15:36 10° SSW 18:21:11 81° WNW 18:26:49 10° N
Cosmos 1975 Rocket 4.2 18:17:13 10° NNW 18:21:27 44° W 18:25:41 10° SSW
BREEZE-M DEB (TANK) 3.4 18:16:23 10° W 18:22:44 55° NNW 18:23:16 48° NNE
NOSS 3-2 (C) 4.2 18:18:59 10° S 18:31:34 - NE 18:21:45 28° SSE
Cosmos 1300 Rocket 3.7 18:21:41 10° SSW 18:26:04 74° W 18:30:27 10° N
SL-27 R/B 3.2 18:22:54 10° NNW 18:25:14 42° N 18:25:14 42° N
Okean-O 4.4 18:22:56 10° SSW 18:26:51 30° W 18:30:46 10° NW
USA 215 3.2 18:24:15 36° SE 18:27:11 81° SW 18:33:47 10° NW
Meteor 1-22 Rocket 4.1 18:22:59 10° S 18:28:33 72° E 18:34:22 10° NNE
CENTAUR R/B 2.4 18:24:54 10° SSW 18:30:34 61° ESE 18:37:23 10° NE
Cosmos 2112 Rocket 4.2 18:26:05 10° NNW 18:31:14 52° ENE 18:31:29 52° ENE
Cosmos 1766 4.0 18:27:33 10° SSW 18:31:23 53° WNW 18:35:13 10° N
Cosmos 1900 4.3 18:30:11 10° NNW 18:35:03 61° NE 18:35:11 61° ENE
Cosmos 990 Rocket 3.8 18:30:10 10° S 18:35:15 66° ESE 18:40:25 10° NNE
Meteor 2-5 Rocket 3.7 18:30:48 10° NNW 18:36:22 78° W 18:38:59 33° S
Resurs 01 Rocket 2.4 18:43:14 40° NNE 18:43:14 40° NNE 18:46:19 10° N
Ariane Rocket 2.8 18:42:21 73° ESE 18:42:35 75° ENE 18:47:41 10° N
OBJECT-B 2.7 18:43:19 26° WSW 18:43:30 26° W 18:46:15 10° NW
Resurs 1-3 3.6 18:44:33 80° WNW 18:44:33 80° WNW 18:48:52 10° NNW
Helios 1A Rocket 3.2 18:44:59 67° NW 18:44:59 67° NW 18:48:38 10° NNW
Cosmos 2366 rocket 3.9 18:39:16 10° S 18:45:24 85° W 18:51:36 10° N
Atlas Centaur 2 4.3 18:40:06 10° WSW 18:46:29 24° S 18:47:58 23° S
Cosmos 1241 Rocket 4.4 18:41:56 10° NW 18:48:14 81° WSW 18:49:35 57° SSE
Terra 4.2 18:55:28 12° NNE 18:55:28 12° NNE 18:55:58 10° NNE
USA 238 DEB 3.4 18:48:20 10° SSW 18:54:48 78° SE 19:01:40 10° NE
USA 238 3.4 18:48:27 10° SSW 18:54:54 77° SE 19:01:46 10° NE
USA 186 4.4 18:55:20 18° W 18:55:20 18° W 18:57:28 10° NW
SJ 16-02 3.7 18:53:28 10° WSW 18:57:04 24° WNW 19:00:42 10° N
USA 305 3.7 18:53:44 10° NW 18:56:53 48° NW 18:56:53 48° NW
Cosmos 2218 Rocket 4.2 18:51:56 10° SSW 18:58:03 68° W 19:04:16 10° N
Cosmos 2297 Rocket 3.2 18:54:45 10° NNW 18:59:03 32° NE 18:59:03 32° NE
Cosmos 1867 4.3 18:57:33 10° NNW 19:02:10 42° NNE 19:02:10 42° NNE
NOSS 3-2 (A) 3.5 18:57:38 10° SW 19:03:13 69° NW 19:09:43 10° NE
ISS -0.9 19:06:14 10° WNW 19:07:19 19° NW 19:07:19 19° NW
USA 307 4.4 19:09:28 10° WNW 19:12:02 36° WNW 19:12:02 36° WNW
Cosmos 2227 Rocket 3.4 19:17:24 10° NNW 19:21:08 32° NNE 19:21:08 32° NNE
SPOT 3 Rocket 4.4 19:30:37 47° NNW 19:30:37 47° NNW 19:34:19 10° NNW
USA 281 3.6 19:24:22 10° NNE 19:29:01 49° NNE 19:29:01 49° NNE
Cosmos 2263 Rocket 4.5 19:31:52 10° N 19:33:41 13° NNE 19:33:41 13° NNE
SeaSat 1 4.2 19:36:15 25° WSW 19:36:17 25° WSW 19:40:20 10° NW
Gbstr 26 Del rocket 4.3 19:29:03 10° WSW 19:36:32 86° SSW 19:36:32 86° SSW
Cosmos 1821 Rocket 4.3 19:41:12 65° NW 19:41:12 65° NW 19:46:55 10° N
CENTAUR R/B 3.8 20:15:56 10° W 20:21:39 38° NNW 20:28:28 10° NNE
Cosmos 2297 Rocket 4.3 20:38:43 10° NW 20:40:51 22° NW 20:40:51 22° NW
Cosmos 2344 4.5 21:19:37 10° NW 21:27:20 58° NNE 21:27:20 58° NNE
ATLAS 3B R/B 4.4 23:21:02 25° N 23:21:02 25° N 23:25:20 10° NNE
CZ-2D R/B 4.5 23:47:42 10° NNE 23:49:12 19° NNE 23:49:12 19° NNE
